| time (UTC) | temp F | wind direction | speed MPH | gust MPH | rain 1hr in | rain 24hr in | rain mn in | humidity % | barometer mb |
| 20260904211557 | 65 | 94 | 2.0 | 7.0 | 0.00 | 0.01 | 0.00 | 40 | 1012.2 |
| 20260904210100 | 65 | 131 | 2.0 | 11.0 | 0.00 | 0.01 | 0.00 | 40 | 1012.3 |
| 20260904204550 | 65 | 133 | 4.0 | 8.0 | 0.00 | 0.01 | 0.00 | 40 | 1012.3 |
| 20260904203049 | 66 | 130 | 6.0 | 12.0 | 0.00 | 0.01 | 0.00 | 40 | 1012.2 |
| 20260904201547 | 66 | 122 | 6.0 | 11.0 | 0.00 | 0.01 | 0.00 | 39 | 1012.3 |
| 20260904200045 | 65 | 141 | 3.0 | 11.0 | 0.00 | 0.01 | 0.00 | 43 | 1012.3 |
| 20260904194553 | 64 | 340 | 5.0 | 7.0 | 0.00 | 0.01 | 0.00 | 43 | 1012.2 |
| 20260904193044 | 65 | 301 | 2.0 | 8.0 | 0.00 | 0.01 | 0.00 | 43 | 1012.3 |
| 20260904191547 | 65 | 132 | 0.0 | 6.0 | 0.00 | 0.01 | 0.00 | 43 | 1012.4 |
| 20260904190040 | 64 | 280 | 4.0 | 10.0 | 0.00 | 0.01 | 0.00 | 49 | 1012.6 |
| 20260904184546 | 63 | 69 | 1.0 | 5.0 | 0.00 | 0.01 | 0.00 | 51 | 1012.6 |
| 20260904183040 | 64 | 58 | 5.0 | 8.0 | 0.00 | 0.01 | 0.00 | 50 | 1012.7 |
| 20260904181535 | 62 | 162 | 1.0 | 9.0 | 0.00 | 0.01 | 0.00 | 52 | 1012.8 |
| 20260904180032 | 62 | 236 | 3.0 | 8.0 | 0.00 | 0.01 | 0.00 | 53 | 1012.7 |
| 20260904174556 | 61 | 124 | 0.0 | 7.0 | 0.00 | 0.01 | 0.00 | 56 | 1012.6 |
| 20260904173026 | 59 | 53 | 0.0 | 7.0 | 0.00 | 0.01 | 0.00 | 59 | 1012.7 |
| 20260904171524 | 59 | 125 | 3.0 | 8.0 | 0.00 | 0.01 | 0.00 | 62 | 1012.7 |
| 20260904170023 | 58 | 155 | 1.0 | 8.0 | 0.00 | 0.01 | 0.00 | 65 | 1012.7 |
| 20260904164519 | 57 | 57 | 3.0 | 7.0 | 0.00 | 0.01 | 0.00 | 65 | 1012.7 |
| 20260904163016 | 57 | 121 | 0.0 | 8.0 | 0.00 | 0.01 | 0.00 | 66 | 1012.7 |
| 20260904161514 | 56 | 111 | 0.0 | 4.0 | 0.00 | 0.01 | 0.00 | 68 | 1012.8 |
| 20260904160010 | 55 | 330 | 2.0 | 5.0 | 0.00 | 0.01 | 0.00 | 74 | 1012.6 |
| 20260904154507 | 54 | 318 | 2.0 | 3.0 | 0.00 | 0.01 | 0.00 | 76 | 1012.7 |
| 20260904153006 | 54 | 15 | 1.0 | 3.0 | 0.00 | 0.01 | 0.00 | 73 | 1012.6 |
| 20260904151502 | 53 | 314 | 2.0 | 4.0 | 0.00 | 0.01 | 0.00 | 79 | 1012.4 |
| 20260904150059 | 52 | 305 | 2.0 | 4.0 | 0.00 | 0.01 | 0.00 | 80 | 1012.4 |
| 20260904144557 | 51 | 297 | 1.0 | 3.0 | 0.00 | 0.01 | 0.00 | 85 | 1012.2 |
| 20260904143056 | 50 | 296 | 1.0 | 3.0 | 0.00 | 0.01 | 0.00 | 86 | 1012.1 |
| 20260904141554 | 0 | 0.0 | 0.0 | 0.00 | 0.01 | 0.00 | 1012.1 | ||
| 20260904140051 | 0 | 0.0 | 0.0 | 0.00 | 0.01 | 0.00 | 1011.9 | ||
| 20260904134547 | 0 | 0.0 | 0.0 | 0.00 | 0.01 | 0.00 | 1011.8 | ||
| 20260904133046 | 0 | 0.0 | 0.0 | 0.00 | 0.01 | 0.00 | 1011.7 | ||
| 20260904131543 | 47 | 271 | 0.0 | 0.0 | 0.00 | 0.01 | 0.00 | 86 | 1011.7 |
| 20260904130039 | 48 | 276 | 0.0 | 0.0 | 0.00 | 0.01 | 0.00 | 87 | 1011.4 |
| 20260904124541 | 48 | 279 | 0.0 | 0.0 | 0.00 | 0.01 | 0.00 | 87 | 1011.3 |
| 20260904123053 | 48 | 275 | 0.0 | 0.0 | 0.00 | 0.01 | 0.00 | 86 | 1011.2 |
| 20260904121535 | 49 | 274 | 0.0 | 0.0 | 0.00 | 0.01 | 0.00 | 86 | 1011.0 |
| 20260904120038 | 48 | 274 | 0.0 | 0.0 | 0.00 | 0.01 | 0.00 | 86 | 1011.0 |
| 20260904114533 | 48 | 274 | 0.0 | 0.0 | 0.00 | 0.01 | 0.00 | 85 | 1011.0 |
| 20260904113039 | 48 | 274 | 0.0 | 0.0 | 0.00 | 0.01 | 0.00 | 86 | 1011.0 |
| 20260904111530 | 48 | 274 | 0.0 | 0.0 | 0.00 | 0.01 | 0.00 | 85 | 1010.9 |
| 20260904110037 | 48 | 274 | 0.0 | 0.0 | 0.00 | 0.01 | 0.00 | 85 | 1010.7 |
| 20260904104527 | 48 | 274 | 0.0 | 0.0 | 0.00 | 0.01 | 0.00 | 85 | 1010.7 |
| 20260904103026 | 48 | 274 | 0.0 | 0.0 | 0.00 | 0.01 | 0.00 | 84 | 1010.6 |
| 20260904101525 | 48 | 274 | 0.0 | 2.0 | 0.00 | 0.01 | 0.00 | 83 | 1010.6 |
| 20260904100022 | 49 | 292 | 0.0 | 0.0 | 0.00 | 0.01 | 0.00 | 81 | 1010.5 |
| 20260904094521 | 49 | 316 | 0.0 | 2.0 | 0.00 | 0.01 | 0.00 | 79 | 1010.4 |
| 20260904093017 | 50 | 348 | 0.0 | 3.0 | 0.00 | 0.01 | 0.00 | 77 | 1010.4 |
| 20260904091520 | 51 | 1 | 0.0 | 2.0 | 0.00 | 0.01 | 0.00 | 75 | 1010.3 |
| 20260904090014 | 51 | 2 | 1.0 | 3.0 | 0.00 | 0.01 | 0.00 | 76 | 1010.3 |
| 20260904084518 | 52 | 221 | 0.0 | 3.0 | 0.00 | 0.01 | 0.00 | 73 | 1010.1 |
| 20260904083011 | 52 | 240 | 1.0 | 3.0 | 0.00 | 0.01 | 0.00 | 72 | 1010.1 |
| 20260904081505 | 52 | 254 | 1.0 | 3.0 | 0.00 | 0.01 | 0.00 | 73 | 1010.0 |
| 20260904074556 | 51 | 281 | 2.0 | 4.0 | 0.00 | 0.01 | 0.00 | 75 | 1010.1 |
| 20260904073055 | 51 | 195 | 0.0 | 0.0 | 0.00 | 0.01 | 0.00 | 74 | 1010.0 |
| 20260904071552 | 50 | 274 | 0.0 | 1.0 | 0.00 | 0.01 | 0.00 | 76 | 1009.9 |
| 20260904070051 | 51 | 277 | 1.0 | 2.0 | 0.00 | 0.01 | 0.00 | 75 | 1009.9 |
| 20260904064549 | 49 | 257 | 2.0 | 3.0 | 0.00 | 0.01 | 0.01 | 77 | 1009.9 |
| 20260904063048 | 48 | 281 | 3.0 | 3.0 | 0.00 | 0.01 | 0.01 | 78 | 1009.8 |
| 20260904061552 | 46 | 274 | 1.0 | 1.0 | 0.00 | 0.01 | 0.01 | 79 | 1009.9 |
| 20260904060047 | 46 | 263 | 0.0 | 1.0 | 0.00 | 0.01 | 0.01 | 78 | 1009.7 |
| 20260904054547 | 46 | 270 | 2.0 | 3.0 | 0.00 | 0.01 | 0.01 | 78 | 1009.7 |
| 20260904053046 | 48 | 256 | 1.0 | 2.0 | 0.00 | 0.01 | 0.01 | 75 | 1009.6 |
| 20260904051550 | 50 | 290 | 2.0 | 3.0 | 0.00 | 0.01 | 0.01 | 71 | 1009.7 |
| 20260904050045 | 52 | 283 | 2.0 | 4.0 | 0.00 | 0.01 | 0.01 | 66 | 1009.8 |
| 20260904044545 | 52 | 297 | 1.0 | 3.0 | 0.00 | 0.01 | 0.01 | 65 | 1009.9 |
| 20260904043046 | 52 | 306 | 1.0 | 4.0 | 0.00 | 0.01 | 0.01 | 66 | 1009.8 |
| 20260904041551 | 53 | 330 | 2.0 | 6.0 | 0.00 | 0.01 | 0.01 | 64 | 1009.8 |
| 20260904040043 | 54 | 316 | 1.0 | 2.0 | 0.00 | 0.01 | 0.01 | 64 | 1009.8 |
| 20260904034551 | 54 | 320 | 1.0 | 4.0 | 0.00 | 0.01 | 0.01 | 65 | 1009.5 |
| 20260904033042 | 54 | 296 | 1.0 | 2.0 | 0.00 | 0.01 | 0.01 | 65 | 1009.2 |
| 20260904031545 | 54 | 335 | 2.0 | 3.0 | 0.01 | 0.01 | 0.01 | 68 | 1009.1 |
| 20260904030041 | 55 | 326 | 1.0 | 4.0 | 0.01 | 0.01 | 0.01 | 73 | 1009.1 |
| 20260904024540 | 55 | 300 | 3.0 | 6.0 | 0.01 | 0.01 | 0.01 | 75 | 1009.1 |
| 20260904023040 | 56 | 76 | 0.0 | 2.0 | 0.01 | 0.01 | 0.01 | 69 | 1009.1 |
| 20260904021538 | 58 | 76 | 0.0 | 0.0 | 0.00 | 0.00 | 0.00 | 62 | 1009.1 |
| 20260904020037 | 58 | 75 | 1.0 | 5.0 | 0.00 | 0.00 | 0.00 | 61 | 1008.8 |
| 20260904014538 | 59 | 28 | 0.0 | 8.0 | 0.00 | 0.00 | 0.00 | 60 | 1008.5 |
| 20260904013037 | 60 | 340 | 4.0 | 8.0 | 0.00 | 0.00 | 0.00 | 57 | 1008.3 |
| 20260904011557 | 61 | 316 | 6.0 | 12.0 | 0.00 | 0.00 | 0.00 | 47 | 1008.2 |
| 20260904010036 | 61 | 297 | 10.0 | 16.0 | 0.00 | 0.00 | 0.00 | 46 | 1008.0 |
| 20260904004535 | 63 | 293 | 11.0 | 18.0 | 0.00 | 0.00 | 0.00 | 46 | 1007.9 |
| 20260904003035 | 65 | 286 | 12.0 | 16.0 | 0.00 | 0.00 | 0.00 | 44 | 1007.7 |
| 20260904001535 | 65 | 299 | 8.0 | 12.0 | 0.00 | 0.00 | 0.00 | 42 | 1007.7 |
| 20260904000040 | 65 | 316 | 8.0 | 11.0 | 0.00 | 0.00 | 0.00 | 43 | 1007.7 |
| 20260903234539 | 63 | 310 | 7.0 | 11.0 | 0.00 | 0.00 | 0.00 | 46 | 1007.7 |
| 20260903233030 | 64 | 297 | 6.0 | 8.0 | 0.00 | 0.00 | 0.00 | 41 | 1007.7 |
| 20260903231529 | 64 | 285 | 3.0 | 6.0 | 0.00 | 0.00 | 0.00 | 42 | 1007.8 |
| 20260903230038 | 63 | 328 | 4.0 | 10.0 | 0.00 | 0.00 | 0.00 | 42 | 1008.0 |
| 20260903224526 | 63 | 29 | 3.0 | 9.0 | 0.00 | 0.00 | 0.00 | 43 | 1008.2 |
| 20260903223022 | 63 | 84 | 4.0 | 9.0 | 0.00 | 0.00 | 0.00 | 44 | 1008.4 |
| 20260903221520 | 64 | 41 | 3.0 | 8.0 | 0.00 | 0.00 | 0.00 | 44 | 1008.6 |
| 20260903220019 | 64 | 84 | 2.0 | 13.0 | 0.00 | 0.00 | 0.00 | 44 | 1008.7 |
| 20260903214520 | 64 | 156 | 3.0 | 7.0 | 0.00 | 0.00 | 0.00 | 46 | 1008.9 |
| 20260903213019 | 64 | 302 | 0.0 | 6.0 | 0.00 | 0.00 | 0.00 | 46 | 1009.0 |